Location: Mexico
(19.4000°N, 99.1500°W)
Time: 15:43:26
(UTC-06:00)

ISS - Pass Details

Date: 09 August 2020
Orbit: 418 x 420 km, 51.6° (Epoch: 08 August)

Event Time Altitude Azimuth Distance (km) Brightness Sun altitude
Rises 20:18:37 0° 304° (WNW) 2,354 1.7 -16.5°
Reaches altitude 10° 20:21:00 10° 288° (WNW) 1,490 0.3 -17.0°
Maximum altitude 20:23:40 22° 235° (SW) 954 -1.6 -17.6°
Enters shadow 20:25:38 14° 190° (S) 1,267 -1.5 -18.0°
